{"data":{"norad_id":66260,"epoch":"2026-05-25T03:13:20.222112Z","epoch_age_seconds":63739,"freshness":"FRESH","line1":"1 66260U 25245AC  26145.13426183  .00022105  00000+0  72156-3 0  9997","line2":"2 66260  53.1598 288.5883 0000982 102.6622 257.4490 15.31718183 32962","mean_motion":15.31718183,"eccentricity":9.82e-5,"inclination_deg":53.1598,"raan_deg":288.5883,"arg_perigee_deg":102.6622,"mean_anomaly_deg":257.449,"bstar":0.00072156,"rev_number":3296,"period_min":94.012071932164,"perigee_km":470.01323878672,"apogee_km":471.3583475833,"semimajor_km":6848.822793185,"source":"CELESTRAK","updated_at":"2026-05-25T13:38:21.139322Z"}}